This is the latest recevied weather packets stored in our database for station/object KB9PVH-3. If no packets are shown the sender has not sent any weather packets the latest 10 day(s).
| Time | Temp. | Humidity | Pressure | Rain* | Wind** | Luminosity | Snow |
|---|---|---|---|---|---|---|---|
| 1778016699 | 15.56° C | 28% | 1009.9 hPa | 0 mm | - | - | - |
| 1778015645 | 15.56° C | 33% | 1010.1 hPa | 0 mm | - | - | - |
| 1778014599 | 15.56° C | 30% | 1010.1 hPa | 0 mm | - | - | - |
| 1778013549 | 15° C | 31% | 1010 hPa | 0 mm | - | - | - |
| 1778012495 | 15.56° C | 30% | 1010.3 hPa | 0 mm | - | - | - |
| 1778011446 | 15° C | 34% | 1010.2 hPa | 0 mm | - | - | - |
| 1778010396 | 15.56° C | 37% | 1010.4 hPa | 0 mm | - | - | - |
| 1778009349 | 14.44° C | 34% | 1010.4 hPa | 0 mm | - | - | - |
| 1778008299 | 14.44° C | 32% | 1010.4 hPa | 0 mm | - | - | - |
| 1778007249 | 14.44° C | 32% | 1010.4 hPa | 0 mm | - | - | - |
| 1778006199 | 15° C | 31% | 1010.3 hPa | 0 mm | - | - | - |
| 1778005149 | 13.89° C | 35% | 1010.2 hPa | 0 mm | - | - | - |
| 1778000949 | 13.33° C | 36% | 1010.2 hPa | 0 mm | - | - | - |
| 1777998853 | 13.33° C | 38% | 1010.2 hPa | 0 mm | - | - | - |
| 1777997795 | 12.78° C | 40% | 1010.1 hPa | 0 mm | - | - | - |
| 1777995694 | 12.78° C | 42% | 1010.2 hPa | 0 mm | - | - | - |
| 1777994644 | 11.67° C | 43% | 1010.1 hPa | 0 mm | - | - | - |
| 1777993595 | 11.11° C | 44% | 1010.2 hPa | 0 mm | - | - | - |
| 1777992546 | 10° C | 47% | 1010.1 hPa | 0 mm | - | - | - |
| 1777991499 | 10.56° C | 48% | 1010.3 hPa | 0 mm | - | - | - |
| 1777990444 | 10.56° C | 48% | 1010.2 hPa | 0 mm | - | - | - |
| 1777989396 | 10.56° C | 48% | 1010.3 hPa | 0 mm | - | - | - |
| 1777988346 | 10° C | 49% | 1010.3 hPa | 0 mm | - | - | - |
| 1777987296 | 8.89° C | 51% | 1010.4 hPa | 0 mm | - | - | - |
| 1777986254 | 8.33° C | 55% | 1010.6 hPa | 0 mm | - | - | - |
* Rain latest hour (hover to see other rain measurements)
** Current wind speed in m/s (hover to see current wind gust speed)